Data supplied by UK-AIR on 28/4/2023
All Data GMT hour ending 
Status: R =Ratified P=Provisional,P*=As supplied
,,Hartlepool St Abbs Walk,,,,,,,,,,,,,,,,,,,,,,,
Date,time,"PM<sub>10</sub> particulate matter (Hourly measured)",status,unit,"Nitric oxide",status,unit,"Nitrogen dioxide",status,unit,"Nitrogen oxides as nitrogen dioxide",status,unit,"PM<sub>2.5</sub> particulate matter (Hourly measured)",status,unit
 
01-01-2022,01:00,,,,0.47482,R,ugm-3,15.79859,R,ugm-3,16.52663,R,ugm-3,,,
01-01-2022,02:00,,,,0.23741,R,ugm-3,10.03890,R,ugm-3,10.40293,R,ugm-3,,,
01-01-2022,03:00,,,,0.39173,R,ugm-3,12.56903,R,ugm-3,13.16966,R,ugm-3,,,
01-01-2022,04:00,,,,0.17806,R,ugm-3,13.94800,R,ugm-3,14.22102,R,ugm-3,,,
01-01-2022,05:00,,,,0.32050,R,ugm-3,8.14079,R,ugm-3,8.63221,R,ugm-3,,,
01-01-2022,06:00,,,,0.49856,R,ugm-3,8.86379,R,ugm-3,9.62824,R,ugm-3,,,
01-01-2022,07:00,,,,0.39173,R,ugm-3,7.03555,R,ugm-3,7.63619,R,ugm-3,,,
01-01-2022,08:00,,,,0.32050,R,ugm-3,5.09738,R,ugm-3,5.58881,R,ugm-3,,,
01-01-2022,09:00,,,,0.49856,R,ugm-3,10.02582,R,ugm-3,10.79027,R,ugm-3,,,
01-01-2022,10:00,,,,1.46006,R,ugm-3,16.68574,R,ugm-3,18.92447,R,ugm-3,,,
01-01-2022,11:00,,,,1.38884,R,ugm-3,11.26147,R,ugm-3,13.39100,R,ugm-3,,,
01-01-2022,12:00,,,,1.38884,R,ugm-3,9.93344,R,ugm-3,12.06297,R,ugm-3,,,
01-01-2022,13:00,,,,1.74495,R,ugm-3,14.69954,R,ugm-3,17.37510,R,ugm-3,,,
01-01-2022,14:00,,,,0.81906,R,ugm-3,6.26965,R,ugm-3,7.52552,R,ugm-3,,,
01-01-2022,15:00,,,,0.53417,R,ugm-3,4.76976,R,ugm-3,5.58881,R,ugm-3,,,
01-01-2022,16:00,,,,0.85467,R,ugm-3,4.22299,R,ugm-3,5.53347,R,ugm-3,,,
01-01-2022,17:00,,,,0.53417,R,ugm-3,5.10177,R,ugm-3,5.92081,R,ugm-3,,,
01-01-2022,18:00,,,,0.46295,R,ugm-3,4.71296,R,ugm-3,5.42280,R,ugm-3,,,
01-01-2022,19:00,,,,0.78345,R,ugm-3,4.66421,R,ugm-3,5.86548,R,ugm-3,,,
01-01-2022,20:00,,,,0.56978,R,ugm-3,4.49382,R,ugm-3,5.36747,R,ugm-3,,,
01-01-2022,21:00,,,,0.46295,R,ugm-3,4.60229,R,ugm-3,5.31213,R,ugm-3,,,
01-01-2022,22:00,,,,0.42734,R,ugm-3,3.77154,R,ugm-3,4.42678,R,ugm-3,,,
01-01-2022,23:00,,,,0.39173,R,ugm-3,2.99612,R,ugm-3,3.59676,R,ugm-3,,,
01-01-2022,24:00,,,,0.21367,R,ugm-3,3.37981,R,ugm-3,3.70743,R,ugm-3,,,
02-01-2022,01:00,,,,0.28502,R,ugm-3,3.47140,R,ugm-3,3.90843,R,ugm-3,,,
02-01-2022,02:00,,,,0.28502,R,ugm-3,2.95519,R,ugm-3,3.39222,R,ugm-3,,,
02-01-2022,03:00,,,,0.46316,R,ugm-3,2.82954,R,ugm-3,3.53971,R,ugm-3,,,
02-01-2022,04:00,,,,0.39191,R,ugm-3,5.20642,R,ugm-3,5.80734,R,ugm-3,,,
02-01-2022,05:00,,,,0.32065,R,ugm-3,1.00166,R,ugm-3,1.49331,R,ugm-3,,,
02-01-2022,06:00,,,,0.42754,R,ugm-3,1.55677,R,ugm-3,2.21232,R,ugm-3,,,
02-01-2022,07:00,,,,0.57005,R,ugm-3,2.22319,R,ugm-3,3.09724,R,ugm-3,,,
02-01-2022,08:00,,,,0.35628,R,ugm-3,2.49565,R,ugm-3,3.04194,R,ugm-3,,,
02-01-2022,09:00,,,,0.32065,R,ugm-3,4.32013,R,ugm-3,4.81179,R,ugm-3,,,
02-01-2022,10:00,,,,0.64130,R,ugm-3,6.26202,R,ugm-3,7.24534,R,ugm-3,,,
02-01-2022,11:00,,,,1.10446,R,ugm-3,5.66247,R,ugm-3,7.35596,R,ugm-3,,,
02-01-2022,12:00,,,,0.85507,R,ugm-3,4.99402,R,ugm-3,6.30511,R,ugm-3,,,
02-01-2022,13:00,,,,0.81944,R,ugm-3,5.32519,R,ugm-3,6.58165,R,ugm-3,,,
02-01-2022,14:00,,,,0.85507,R,ugm-3,5.93425,R,ugm-3,7.24534,R,ugm-3,,,
02-01-2022,15:00,,,,0.71256,R,ugm-3,6.81646,R,ugm-3,7.90904,R,ugm-3,,,
02-01-2022,16:00,,,,0.53442,R,ugm-3,8.80415,R,ugm-3,9.62358,R,ugm-3,,,
02-01-2022,17:00,,,,0.39191,R,ugm-3,7.58466,R,ugm-3,8.18558,R,ugm-3,,,
02-01-2022,18:00,,,,0.57005,R,ugm-3,8.30706,R,ugm-3,9.18112,R,ugm-3,,,
02-01-2022,19:00,,,,0.49879,R,ugm-3,6.20400,R,ugm-3,6.96880,R,ugm-3,,,
02-01-2022,20:00,,,,0.57005,R,ugm-3,4.54612,R,ugm-3,5.42018,R,ugm-3,,,
02-01-2022,21:00,,,,0.39191,R,ugm-3,2.21979,R,ugm-3,2.82071,R,ugm-3,,,
02-01-2022,22:00,,,,0.46316,R,ugm-3,1.88930,R,ugm-3,2.59947,R,ugm-3,,,
02-01-2022,23:00,,,,0.57005,R,ugm-3,1.39357,R,ugm-3,2.26763,R,ugm-3,,,
02-01-2022,24:00,,,,0.57005,R,ugm-3,1.22764,R,ugm-3,2.10170,R,ugm-3,,,
03-01-2022,01:00,,,,0.23763,R,ugm-3,1.03610,R,ugm-3,1.40046,R,ugm-3,,,
03-01-2022,02:00,,,,0.23763,R,ugm-3,0.52014,R,ugm-3,0.88450,R,ugm-3,,,
03-01-2022,03:00,,,,0.24951,R,ugm-3,0.44664,R,ugm-3,0.82922,R,ugm-3,,,
03-01-2022,04:00,,,,0.14258,R,ugm-3,0.72116,R,ugm-3,0.93978,R,ugm-3,,,
03-01-2022,05:00,,,,0.32080,R,ugm-3,0.89014,R,ugm-3,1.38203,R,ugm-3,,,
03-01-2022,06:00,,,,0.21387,R,ugm-3,0.83298,R,ugm-3,1.16091,R,ugm-3,,,
03-01-2022,07:00,,,,0.17822,R,ugm-3,1.49573,R,ugm-3,1.76900,R,ugm-3,,,
03-01-2022,08:00,,,,0.42773,R,ugm-3,1.77652,R,ugm-3,2.43237,R,ugm-3,,,
03-01-2022,09:00,,,,0.24951,R,ugm-3,2.76845,R,ugm-3,3.15103,R,ugm-3,,,
03-01-2022,10:00,,,,0.49902,R,ugm-3,3.87846,R,ugm-3,4.64362,R,ugm-3,,,
03-01-2022,11:00,,,,0.67725,R,ugm-3,3.54991,R,ugm-3,4.58834,R,ugm-3,,,
03-01-2022,12:00,,,,0.78418,R,ugm-3,4.10460,R,ugm-3,5.30699,R,ugm-3,,,
03-01-2022,13:00,,,,0.85547,R,ugm-3,3.49776,R,ugm-3,4.80946,R,ugm-3,,,
03-01-2022,14:00,,,,0.60596,R,ugm-3,3.82506,R,ugm-3,4.75418,R,ugm-3,,,
03-01-2022,15:00,,,,0.78418,R,ugm-3,6.53698,R,ugm-3,7.73937,R,ugm-3,,,
03-01-2022,16:00,,,,0.67725,R,ugm-3,6.42453,R,ugm-3,7.46296,R,ugm-3,,,
03-01-2022,17:00,,,,0.96240,R,ugm-3,4.77111,R,ugm-3,6.24677,R,ugm-3,,,
03-01-2022,18:00,,,,0.42773,R,ugm-3,1.66596,R,ugm-3,2.32181,R,ugm-3,,,
03-01-2022,19:00,,,,0.60596,R,ugm-3,2.27719,R,ugm-3,3.20631,R,ugm-3,,,
03-01-2022,20:00,,,,0.53467,R,ugm-3,1.77840,R,ugm-3,2.59822,R,ugm-3,,,
03-01-2022,21:00,,,,0.42773,R,ugm-3,2.21877,R,ugm-3,2.87462,R,ugm-3,,,
03-01-2022,22:00,,,,0.57031,R,ugm-3,1.39206,R,ugm-3,2.26653,R,ugm-3,,,
03-01-2022,23:00,,,,0.32080,R,ugm-3,4.15173,R,ugm-3,4.64362,R,ugm-3,,,
03-01-2022,24:00,,,,0.42773,R,ugm-3,6.53070,R,ugm-3,7.18655,R,ugm-3,,,
04-01-2022,01:00,,,,0.19019,R,ugm-3,4.12873,R,ugm-3,4.42035,R,ugm-3,,,
04-01-2022,02:00,,,,0.38039,R,ugm-3,4.05812,R,ugm-3,4.64137,R,ugm-3,,,
04-01-2022,03:00,,,,0.24963,R,ugm-3,4.14811,R,ugm-3,4.53086,R,ugm-3,,,
04-01-2022,04:00,,,,0.35661,R,ugm-3,2.38169,R,ugm-3,2.92849,R,ugm-3,,,
04-01-2022,05:00,,,,0.46359,R,ugm-3,2.65969,R,ugm-3,3.37052,R,ugm-3,,,
04-01-2022,06:00,,,,0.53492,R,ugm-3,3.32389,R,ugm-3,4.14408,R,ugm-3,,,
04-01-2022,07:00,,,,0.67756,R,ugm-3,5.81264,R,ugm-3,6.85155,R,ugm-3,,,
04-01-2022,08:00,,,,0.89153,R,ugm-3,10.29169,R,ugm-3,11.65868,R,ugm-3,,,
04-01-2022,09:00,,,,1.28380,R,ugm-3,16.37600,R,ugm-3,18.34447,R,ugm-3,,,
04-01-2022,10:00,,,,2.10400,R,ugm-3,15.00786,R,ugm-3,18.23396,R,ugm-3,,,
04-01-2022,11:00,,,,1.96136,R,ugm-3,10.86148,R,ugm-3,13.86886,R,ugm-3,,,
04-01-2022,12:00,,,,2.99553,R,ugm-3,9.16527,R,ugm-3,13.75835,R,ugm-3,,,
04-01-2022,13:00,,,,2.67458,R,ugm-3,8.77331,R,ugm-3,12.87428,R,ugm-3,,,
04-01-2022,14:00,,,,2.24665,R,ugm-3,9.04269,R,ugm-3,12.48750,R,ugm-3,,,
04-01-2022,15:00,,,,1.60475,R,ugm-3,8.53505,R,ugm-3,10.99563,R,ugm-3,,,
04-01-2022,16:00,,,,1.64041,R,ugm-3,9.30919,R,ugm-3,11.82445,R,ugm-3,,,
04-01-2022,17:00,,,,1.35512,R,ugm-3,11.68053,R,ugm-3,13.75835,R,ugm-3,,,
04-01-2022,18:00,,,,1.28380,R,ugm-3,10.79531,R,ugm-3,12.76377,R,ugm-3,,,
04-01-2022,19:00,,,,0.96285,R,ugm-3,6.92232,R,ugm-3,8.39867,R,ugm-3,,,
04-01-2022,20:00,,,,0.71322,R,ugm-3,5.09490,R,ugm-3,6.18849,R,ugm-3,,,
04-01-2022,21:00,,,,0.99851,R,ugm-3,3.11034,R,ugm-3,4.64137,R,ugm-3,,,
04-01-2022,22:00,,,,0.64190,R,ugm-3,2.66256,R,ugm-3,3.64679,R,ugm-3,,,
04-01-2022,23:00,,,,0.46359,R,ugm-3,1.83087,R,ugm-3,2.54170,R,ugm-3,,,
04-01-2022,24:00,,,,0.57058,R,ugm-3,1.39056,R,ugm-3,2.26543,R,ugm-3,,,
05-01-2022,01:00,,,,0.28542,R,ugm-3,1.03510,R,ugm-3,1.47274,R,ugm-3,,,
05-01-2022,02:00,,,,0.42813,R,ugm-3,0.96355,R,ugm-3,1.62001,R,ugm-3,,,
05-01-2022,03:00,,,,0.35678,R,ugm-3,0.94410,R,ugm-3,1.49115,R,ugm-3,,,
05-01-2022,04:00,,,,0.24974,R,ugm-3,0.83207,R,ugm-3,1.21501,R,ugm-3,,,
05-01-2022,05:00,,,,0.57084,R,ugm-3,1.77565,R,ugm-3,2.65093,R,ugm-3,,,
05-01-2022,06:00,,,,0.28542,R,ugm-3,2.43420,R,ugm-3,2.87184,R,ugm-3,,,
05-01-2022,07:00,,,,0.67788,R,ugm-3,3.82064,R,ugm-3,4.86003,R,ugm-3,,,
05-01-2022,08:00,,,,0.71355,R,ugm-3,4.59435,R,ugm-3,5.68845,R,ugm-3,,,
05-01-2022,09:00,,,,1.10601,R,ugm-3,6.80920,R,ugm-3,8.50506,R,ugm-3,,,
05-01-2022,10:00,,,,1.39143,R,ugm-3,7.19998,R,ugm-3,9.33347,R,ugm-3,,,
05-01-2022,11:00,,,,1.81956,R,ugm-3,7.48239,R,ugm-3,10.27234,R,ugm-3,,,
05-01-2022,12:00,,,,2.28337,R,ugm-3,8.98033,R,ugm-3,12.48145,R,ugm-3,,,
05-01-2022,13:00,,,,2.31905,R,ugm-3,9.69881,R,ugm-3,13.25464,R,ugm-3,,,
05-01-2022,14:00,,,,2.14066,R,ugm-3,9.47529,R,ugm-3,12.75759,R,ugm-3,,,
05-01-2022,15:00,,,,2.39040,R,ugm-3,13.89716,R,ugm-3,17.56239,R,ugm-3,,,
05-01-2022,16:00,,,,1.96227,R,ugm-3,18.36433,R,ugm-3,21.37310,R,ugm-3,,,
05-01-2022,17:00,,,,1.85524,R,ugm-3,19.19117,R,ugm-3,22.03584,R,ugm-3,,,
05-01-2022,18:00,,,,1.42711,R,ugm-3,22.05674,R,ugm-3,24.24494,R,ugm-3,,,
05-01-2022,19:00,,,,0.85626,R,ugm-3,14.75833,R,ugm-3,16.07125,R,ugm-3,,,
05-01-2022,20:00,,,,0.60652,R,ugm-3,15.25172,R,ugm-3,16.18170,R,ugm-3,,,
05-01-2022,21:00,,,,0.64220,R,ugm-3,14.20292,R,ugm-3,15.18760,R,ugm-3,,,
05-01-2022,22:00,,,,0.64220,R,ugm-3,12.10426,R,ugm-3,13.08896,R,ugm-3,,,
05-01-2022,23:00,,,,0.60652,R,ugm-3,14.64421,R,ugm-3,15.57420,R,ugm-3,,,
05-01-2022,24:00,,,,0.60652,R,ugm-3,24.58519,R,ugm-3,25.51518,R,ugm-3,,,
06-01-2022,01:00,,,,0.52352,R,ugm-3,20.61523,R,ugm-3,21.41795,R,ugm-3,,,
06-01-2022,02:00,,,,0.33315,R,ugm-3,12.14859,R,ugm-3,12.65940,R,ugm-3,,,
06-01-2022,03:00,,,,0.53541,R,ugm-3,10.60563,R,ugm-3,11.42659,R,ugm-3,,,
06-01-2022,04:00,,,,0.39264,R,ugm-3,6.51888,R,ugm-3,7.12092,R,ugm-3,,,
06-01-2022,05:00,,,,0.49972,R,ugm-3,7.29311,R,ugm-3,8.05933,R,ugm-3,,,
06-01-2022,06:00,,,,0.64250,R,ugm-3,8.95101,R,ugm-3,9.93616,R,ugm-3,,,
06-01-2022,07:00,,,,0.53541,R,ugm-3,18.05775,R,ugm-3,18.87870,R,ugm-3,,,
06-01-2022,08:00,,,,9.67315,R,ugm-3,44.23300,R,ugm-3,59.06495,R,ugm-3,,,
06-01-2022,09:00,,,,29.16222,R,ugm-3,65.90781,R,ugm-3,110.62258,R,ugm-3,,,
06-01-2022,10:00,,,,30.44721,R,ugm-3,59.90785,R,ugm-3,106.59292,R,ugm-3,,,
06-01-2022,11:00,,,,5.74678,R,ugm-3,35.68032,R,ugm-3,44.49192,R,ugm-3,,,
06-01-2022,12:00,,,,2.35582,R,ugm-3,21.33859,R,ugm-3,24.95080,R,ugm-3,,,
06-01-2022,13:00,,,,2.56999,R,ugm-3,22.66624,R,ugm-3,26.60683,R,ugm-3,,,
06-01-2022,14:00,,,,2.49860,R,ugm-3,26.08775,R,ugm-3,29.91888,R,ugm-3,,,
06-01-2022,15:00,,,,2.60568,R,ugm-3,25.15075,R,ugm-3,29.14607,R,ugm-3,,,
06-01-2022,16:00,,,,2.03457,R,ugm-3,22.43838,R,ugm-3,25.55801,R,ugm-3,,,
06-01-2022,17:00,,,,1.39208,R,ugm-3,23.53393,R,ugm-3,25.66841,R,ugm-3,,,
06-01-2022,18:00,,,,0.78527,R,ugm-3,22.86352,R,ugm-3,24.06759,R,ugm-3,,,
06-01-2022,19:00,,,,0.82097,R,ugm-3,28.49448,R,ugm-3,29.75328,R,ugm-3,,,
06-01-2022,20:00,,,,0.78527,R,ugm-3,27.33479,R,ugm-3,28.53886,R,ugm-3,,,
06-01-2022,21:00,,,,0.57111,R,ugm-3,19.82465,R,ugm-3,20.70033,R,ugm-3,,,
06-01-2022,22:00,,,,0.39264,R,ugm-3,7.34689,R,ugm-3,7.94893,R,ugm-3,,,
06-01-2022,23:00,,,,0.24986,R,ugm-3,4.91617,R,ugm-3,5.29929,R,ugm-3,,,
06-01-2022,24:00,,,,0.39264,R,ugm-3,3.31723,R,ugm-3,3.91926,R,ugm-3,,,
07-01-2022,01:00,,,,0.09523,R,ugm-3,1.76669,R,ugm-3,1.91270,R,ugm-3,,,
07-01-2022,02:00,,,,0.23807,R,ugm-3,1.32697,R,ugm-3,1.69201,R,ugm-3,,,
07-01-2022,03:00,,,,0.35711,R,ugm-3,4.19742,R,ugm-3,4.74498,R,ugm-3,,,
07-01-2022,04:00,,,,0.28569,R,ugm-3,4.25175,R,ugm-3,4.68980,R,ugm-3,,,
07-01-2022,05:00,,,,0.10713,R,ugm-3,2.09787,R,ugm-3,2.26214,R,ugm-3,,,
07-01-2022,06:00,,,,0.17856,R,ugm-3,4.47120,R,ugm-3,4.74498,R,ugm-3,,,
07-01-2022,07:00,,,,0.42853,R,ugm-3,5.79830,R,ugm-3,6.45537,R,ugm-3,,,
07-01-2022,08:00,,,,0.57137,R,ugm-3,8.83455,R,ugm-3,9.71065,R,ugm-3,,,
07-01-2022,09:00,,,,1.35701,R,ugm-3,24.73390,R,ugm-3,26.81463,R,ugm-3,,,
07-01-2022,10:00,,,,7.10646,R,ugm-3,46.37432,R,ugm-3,57.27074,R,ugm-3,,,
07-01-2022,11:00,,,,3.53538,R,ugm-3,23.76628,R,ugm-3,29.18711,R,ugm-3,,,
07-01-2022,12:00,,,,3.03542,R,ugm-3,20.33963,R,ugm-3,24.99388,R,ugm-3,,,
07-01-2022,13:00,,,,2.60689,R,ugm-3,13.49302,R,ugm-3,17.49020,R,ugm-3,,,
07-01-2022,14:00,,,,1.78554,R,ugm-3,8.68325,R,ugm-3,11.42105,R,ugm-3,,,
07-01-2022,15:00,,,,1.74983,R,ugm-3,11.93811,R,ugm-3,14.62115,R,ugm-3,,,
07-01-2022,16:00,,,,1.17846,R,ugm-3,18.00057,R,ugm-3,19.80751,R,ugm-3,,,
07-01-2022,17:00,,,,1.07133,R,ugm-3,26.88235,R,ugm-3,28.52502,R,ugm-3,,,
07-01-2022,18:00,,,,1.07133,R,ugm-3,15.73717,R,ugm-3,17.37985,R,ugm-3,,,
07-01-2022,19:00,,,,1.03561,R,ugm-3,17.83337,R,ugm-3,19.42129,R,ugm-3,,,
07-01-2022,20:00,,,,1.64270,R,ugm-3,24.68208,R,ugm-3,27.20085,R,ugm-3,,,
07-01-2022,21:00,,,,0.96419,R,ugm-3,22.79821,R,ugm-3,24.27662,R,ugm-3,,,
07-01-2022,22:00,,,,0.39282,R,ugm-3,16.94306,R,ugm-3,17.54537,R,ugm-3,,,
07-01-2022,23:00,,,,0.42853,R,ugm-3,10.15706,R,ugm-3,10.81413,R,ugm-3,,,
07-01-2022,24:00,,,,0.35711,R,ugm-3,14.34946,R,ugm-3,14.89702,R,ugm-3,,,
08-01-2022,01:00,,,,0.42873,R,ugm-3,11.18092,R,ugm-3,11.83830,R,ugm-3,,,
08-01-2022,02:00,,,,0.28582,R,ugm-3,8.01768,R,ugm-3,8.45593,R,ugm-3,,,
08-01-2022,03:00,,,,0.39300,R,ugm-3,8.77246,R,ugm-3,9.37505,R,ugm-3,,,
08-01-2022,04:00,,,,0.42873,R,ugm-3,4.91251,R,ugm-3,5.56989,R,ugm-3,,,
08-01-2022,05:00,,,,0.25009,R,ugm-3,11.36292,R,ugm-3,11.74639,R,ugm-3,,,
08-01-2022,06:00,,,,0.28582,R,ugm-3,11.30814,R,ugm-3,11.74639,R,ugm-3,,,
08-01-2022,07:00,,,,0.57164,R,ugm-3,10.86989,R,ugm-3,11.74639,R,ugm-3,,,
08-01-2022,08:00,,,,0.82173,R,ugm-3,9.60406,R,ugm-3,10.86403,R,ugm-3,,,
08-01-2022,09:00,,,,0.96464,R,ugm-3,11.09450,R,ugm-3,12.57360,R,ugm-3,,,
08-01-2022,10:00,,,,1.25046,R,ugm-3,15.12319,R,ugm-3,17.04054,R,ugm-3,,,
08-01-2022,11:00,,,,1.89356,R,ugm-3,20.25848,R,ugm-3,23.16189,R,ugm-3,,,
08-01-2022,12:00,,,,1.53628,R,ugm-3,15.56730,R,ugm-3,17.92289,R,ugm-3,,,
08-01-2022,13:00,,,,2.17938,R,ugm-3,21.86068,R,ugm-3,25.20235,R,ugm-3,,,
08-01-2022,14:00,,,,3.39411,R,ugm-3,24.35476,R,ugm-3,29.55899,R,ugm-3,,,
08-01-2022,15:00,,,,1.92928,R,ugm-3,20.64488,R,ugm-3,23.60307,R,ugm-3,,,
08-01-2022,16:00,,,,1.32192,R,ugm-3,20.52836,R,ugm-3,22.55527,R,ugm-3,,,
08-01-2022,17:00,,,,0.96464,R,ugm-3,20.85559,R,ugm-3,22.33468,R,ugm-3,,,
08-01-2022,18:00,,,,0.39300,R,ugm-3,13.79087,R,ugm-3,14.39346,R,ugm-3,,,
08-01-2022,19:00,,,,0.50019,R,ugm-3,12.57872,R,ugm-3,13.34566,R,ugm-3,,,
08-01-2022,20:00,,,,0.53591,R,ugm-3,10.64893,R,ugm-3,11.47065,R,ugm-3,,,
08-01-2022,21:00,,,,0.39300,R,ugm-3,13.01880,R,ugm-3,13.62140,R,ugm-3,,,
08-01-2022,22:00,,,,0.39300,R,ugm-3,10.26144,R,ugm-3,10.86403,R,ugm-3,,,
08-01-2022,23:00,,,,0.42873,R,ugm-3,12.63314,R,ugm-3,13.29052,R,ugm-3,,,
08-01-2022,24:00,,,,0.35727,R,ugm-3,4.74633,R,ugm-3,5.29415,R,ugm-3,,,
09-01-2022,01:00,,,,0.33361,R,ugm-3,2.20775,R,ugm-3,2.71928,R,ugm-3,,,
09-01-2022,02:00,,,,0.33361,R,ugm-3,1.98727,R,ugm-3,2.49880,R,ugm-3,,,
09-01-2022,03:00,,,,0.46467,R,ugm-3,2.09866,R,ugm-3,2.81115,R,ugm-3,,,
09-01-2022,04:00,,,,0.21447,R,ugm-3,1.60038,R,ugm-3,1.92922,R,ugm-3,,,
09-01-2022,05:00,,,,0.17872,R,ugm-3,1.32446,R,ugm-3,1.59850,R,ugm-3,,,
09-01-2022,06:00,,,,0.25021,R,ugm-3,3.47479,R,ugm-3,3.85844,R,ugm-3,,,
09-01-2022,07:00,,,,0.32170,R,ugm-3,5.01880,R,ugm-3,5.51206,R,ugm-3,,,
09-01-2022,08:00,,,,0.39319,R,ugm-3,8.49202,R,ugm-3,9.09490,R,ugm-3,,,
09-01-2022,09:00,,,,0.78637,R,ugm-3,17.86598,R,ugm-3,19.07173,R,ugm-3,,,
09-01-2022,10:00,,,,2.39485,R,ugm-3,24.38433,R,ugm-3,28.05639,R,ugm-3,,,
09-01-2022,11:00,,,,4.86119,R,ugm-3,26.99665,R,ugm-3,34.45038,R,ugm-3,,,
09-01-2022,12:00,,,,4.32503,R,ugm-3,20.15699,R,ugm-3,26.78861,R,ugm-3,,,
09-01-2022,13:00,,,,3.78887,R,ugm-3,20.26253,R,ugm-3,26.07204,R,ugm-3,,,
09-01-2022,14:00,,,,2.50208,R,ugm-3,17.44008,R,ugm-3,21.27655,R,ugm-3,,,
09-01-2022,15:00,,,,1.25104,R,ugm-3,18.53151,R,ugm-3,20.44974,R,ugm-3,,,
09-01-2022,16:00,,,,1.17955,R,ugm-3,19.13721,R,ugm-3,20.94583,R,ugm-3,,,
09-01-2022,17:00,,,,0.82211,R,ugm-3,28.28409,R,ugm-3,29.54464,R,ugm-3,,,
09-01-2022,18:00,,,,0.60765,R,ugm-3,26.18762,R,ugm-3,27.11934,R,ugm-3,,,
09-01-2022,19:00,,,,1.39402,R,ugm-3,37.82497,R,ugm-3,39.96244,R,ugm-3,,,
09-01-2022,20:00,,,,0.89360,R,ugm-3,26.13501,R,ugm-3,27.50518,R,ugm-3,,,
09-01-2022,21:00,,,,0.67914,R,ugm-3,25.03072,R,ugm-3,26.07204,R,ugm-3,,,
09-01-2022,22:00,,,,0.67914,R,ugm-3,23.26686,R,ugm-3,24.30819,R,ugm-3,,,
09-01-2022,23:00,,,,0.57191,R,ugm-3,15.43879,R,ugm-3,16.31570,R,ugm-3,,,
09-01-2022,24:00,,,,0.42893,R,ugm-3,15.10681,R,ugm-3,15.76449,R,ugm-3,,,
10-01-2022,01:00,,,,0.52449,R,ugm-3,11.09606,R,ugm-3,11.90027,R,ugm-3,,,
10-01-2022,02:00,,,,0.42913,R,ugm-3,10.43424,R,ugm-3,11.09223,R,ugm-3,,,
10-01-2022,03:00,,,,0.50065,R,ugm-3,14.93409,R,ugm-3,15.70174,R,ugm-3,,,
10-01-2022,04:00,,,,0.32185,R,ugm-3,12.67394,R,ugm-3,13.16743,R,ugm-3,,,
10-01-2022,05:00,,,,0.35761,R,ugm-3,10.69082,R,ugm-3,11.23914,R,ugm-3,,,
10-01-2022,06:00,,,,0.46489,R,ugm-3,12.34442,R,ugm-3,13.05724,R,ugm-3,,,
10-01-2022,07:00,,,,4.86345,R,ugm-3,24.66253,R,ugm-3,32.11971,R,ugm-3,,,
10-01-2022,08:00,,,,22.81529,R,ugm-3,52.78153,R,ugm-3,87.76448,R,ugm-3,,,
10-01-2022,09:00,,,,13.58904,R,ugm-3,51.94272,R,ugm-3,72.77896,R,ugm-3,,,
10-01-2022,10:00,,,,35.04543,R,ugm-3,59.86792,R,ugm-3,113.60349,R,ugm-3,,,
10-01-2022,11:00,,,,8.54679,R,ugm-3,39.73009,R,ugm-3,52.83499,R,ugm-3,,,
10-01-2022,12:00,,,,7.36669,R,ugm-3,35.86489,R,ugm-3,47.16033,R,ugm-3,,,
10-01-2022,13:00,,,,6.65148,R,ugm-3,35.80456,R,ugm-3,46.00336,R,ugm-3,,,
10-01-2022,14:00,,,,5.11377,R,ugm-3,31.55109,R,ugm-3,39.39209,R,ugm-3,,,
10-01-2022,15:00,,,,4.00519,R,ugm-3,36.88708,R,ugm-3,43.02829,R,ugm-3,,,
10-01-2022,16:00,,,,2.89661,R,ugm-3,40.40497,R,ugm-3,44.84639,R,ugm-3,,,
10-01-2022,17:00,,,,2.39596,R,ugm-3,46.46163,R,ugm-3,50.13539,R,ugm-3,,,
10-01-2022,18:00,,,,1.35891,R,ugm-3,36.53716,R,ugm-3,38.62078,R,ugm-3,,,
10-01-2022,19:00,,,,1.21586,R,ugm-3,33.72632,R,ugm-3,35.59062,R,ugm-3,,,
10-01-2022,20:00,,,,1.07282,R,ugm-3,26.61817,R,ugm-3,28.26314,R,ugm-3,,,
10-01-2022,21:00,,,,0.53641,R,ugm-3,27.66103,R,ugm-3,28.48352,R,ugm-3,,,
10-01-2022,22:00,,,,0.78673,R,ugm-3,23.42064,R,ugm-3,24.62695,R,ugm-3,,,
10-01-2022,23:00,,,,0.42913,R,ugm-3,24.07915,R,ugm-3,24.73713,R,ugm-3,,,
10-01-2022,24:00,,,,0.42913,R,ugm-3,18.62486,R,ugm-3,19.28284,R,ugm-3,,,
11-01-2022,01:00,,,,0.28622,R,ugm-3,13.87858,R,ugm-3,14.31744,R,ugm-3,,,
11-01-2022,02:00,,,,0.47703,R,ugm-3,15.27473,R,ugm-3,16.00616,R,ugm-3,,,
11-01-2022,03:00,,,,0.60821,R,ugm-3,14.21087,R,ugm-3,15.14345,R,ugm-3,,,
11-01-2022,04:00,,,,0.32200,R,ugm-3,12.00651,R,ugm-3,12.50023,R,ugm-3,,,
11-01-2022,05:00,,,,0.71555,R,ugm-3,11.67841,R,ugm-3,12.77556,R,ugm-3,,,
11-01-2022,06:00,,,,0.17889,R,ugm-3,6.93950,R,ugm-3,7.21379,R,ugm-3,,,
11-01-2022,07:00,,,,0.32200,R,ugm-3,11.29064,R,ugm-3,11.78436,R,ugm-3,,,
11-01-2022,08:00,,,,1.32376,R,ugm-3,29.35850,R,ugm-3,31.38823,R,ugm-3,,,
11-01-2022,09:00,,,,5.25925,R,ugm-3,40.11961,R,ugm-3,48.18369,R,ugm-3,,,
11-01-2022,10:00,,,,4.15016,R,ugm-3,32.40373,R,ugm-3,38.76722,R,ugm-3,,,
11-01-2022,11:00,,,,3.97127,R,ugm-3,25.79464,R,ugm-3,31.88384,R,ugm-3,,,
11-01-2022,12:00,,,,4.54371,R,ugm-3,24.97198,R,ugm-3,31.93890,R,ugm-3,,,
11-01-2022,13:00,,,,4.18594,R,ugm-3,21.06012,R,ugm-3,27.47847,R,ugm-3,,,
11-01-2022,14:00,,,,4.22171,R,ugm-3,22.60221,R,ugm-3,29.07542,R,ugm-3,,,
11-01-2022,15:00,,,,5.15192,R,ugm-3,27.06809,R,ugm-3,34.96759,R,ugm-3,,,
11-01-2022,16:00,,,,8.04988,R,ugm-3,43.16464,R,ugm-3,55.50761,R,ugm-3,,,
11-01-2022,17:00,,,,8.87276,R,ugm-3,54.84367,R,ugm-3,68.44837,R,ugm-3,,,
11-01-2022,18:00,,,,13.38069,R,ugm-3,63.79093,R,ugm-3,84.30769,R,ugm-3,,,
11-01-2022,19:00,,,,9.62408,R,ugm-3,62.44733,R,ugm-3,77.20404,R,ugm-3,,,
11-01-2022,20:00,,,,6.76190,R,ugm-3,57.25427,R,ugm-3,67.62237,R,ugm-3,,,
11-01-2022,21:00,,,,1.93197,R,ugm-3,39.93494,R,ugm-3,42.89725,R,ugm-3,,,
11-01-2022,22:00,,,,1.32376,R,ugm-3,24.29233,R,ugm-3,26.32206,R,ugm-3,,,
11-01-2022,23:00,,,,0.32200,R,ugm-3,20.32164,R,ugm-3,20.81535,R,ugm-3,,,
11-01-2022,24:00,,,,0.67977,R,ugm-3,17.18491,R,ugm-3,18.22720,R,ugm-3,,,
12-01-2022,01:00,,,,0.47725,R,ugm-3,10.27629,R,ugm-3,11.00806,R,ugm-3,,,
12-01-2022,02:00,,,,0.14318,R,ugm-3,6.16515,R,ugm-3,6.38468,R,ugm-3,,,
12-01-2022,03:00,,,,0.39373,R,ugm-3,6.33137,R,ugm-3,6.93508,R,ugm-3,,,
12-01-2022,04:00,,,,0.25056,R,ugm-3,8.36723,R,ugm-3,8.75141,R,ugm-3,,,
12-01-2022,05:00,,,,0.42953,R,ugm-3,10.67971,R,ugm-3,11.33830,R,ugm-3,,,
12-01-2022,06:00,,,,0.53691,R,ugm-3,6.71728,R,ugm-3,7.54052,R,ugm-3,,,
12-01-2022,07:00,,,,0.35794,R,ugm-3,13.37637,R,ugm-3,13.92520,R,ugm-3,,,
12-01-2022,08:00,,,,1.03802,R,ugm-3,23.45173,R,ugm-3,25.04334,R,ugm-3,,,
12-01-2022,09:00,,,,4.76058,R,ugm-3,40.58562,R,ugm-3,47.88507,R,ugm-3,,,
12-01-2022,10:00,,,,5.44066,R,ugm-3,33.81865,R,ugm-3,42.16088,R,ugm-3,,,
12-01-2022,11:00,,,,6.65765,R,ugm-3,28.20988,R,ugm-3,38.41814,R,ugm-3,,,
12-01-2022,12:00,,,,2.50557,R,ugm-3,11.56947,R,ugm-3,15.41129,R,ugm-3,,,
12-01-2022,13:00,,,,1.71811,R,ugm-3,8.86904,R,ugm-3,11.50343,R,ugm-3,,,
12-01-2022,14:00,,,,2.61295,R,ugm-3,14.81732,R,ugm-3,18.82379,R,ugm-3,,,
12-01-2022,15:00,,,,1.32437,R,ugm-3,11.01388,R,ugm-3,13.04455,R,ugm-3,,,
12-01-2022,16:00,,,,1.32437,R,ugm-3,16.68303,R,ugm-3,18.71371,R,ugm-3,,,
12-01-2022,17:00,,,,1.14540,R,ugm-3,15.52640,R,ugm-3,17.28266,R,ugm-3,,,
12-01-2022,18:00,,,,0.93064,R,ugm-3,15.58050,R,ugm-3,17.00746,R,ugm-3,,,
12-01-2022,19:00,,,,0.53691,R,ugm-3,12.77171,R,ugm-3,13.59496,R,ugm-3,,,
12-01-2022,20:00,,,,0.85905,R,ugm-3,15.08482,R,ugm-3,16.40201,R,ugm-3,,,
12-01-2022,21:00,,,,0.60850,R,ugm-3,15.24884,R,ugm-3,16.18185,R,ugm-3,,,
12-01-2022,22:00,,,,0.53691,R,ugm-3,14.09268,R,ugm-3,14.91592,R,ugm-3,,,
12-01-2022,23:00,,,,0.46532,R,ugm-3,11.23027,R,ugm-3,11.94375,R,ugm-3,,,
12-01-2022,24:00,,,,0.39373,R,ugm-3,8.80818,R,ugm-3,9.41189,R,ugm-3,,,
13-01-2022,01:00,,,,0.33423,R,ugm-3,7.92293,R,ugm-3,8.43541,R,ugm-3,,,
13-01-2022,02:00,,,,0.28648,R,ugm-3,4.32857,R,ugm-3,4.76784,R,ugm-3,,,
13-01-2022,03:00,,,,0.00000,R,ugm-3,4.07100,R,ugm-3,4.07100,R,ugm-3,,,
13-01-2022,04:00,,,,0.17905,R,ugm-3,3.19131,R,ugm-3,3.46585,R,ugm-3,,,
13-01-2022,05:00,,,,0.28648,R,ugm-3,3.96182,R,ugm-3,4.40108,R,ugm-3,,,
13-01-2022,06:00,,,,0.35811,R,ugm-3,7.26284,R,ugm-3,7.81192,R,ugm-3,,,
13-01-2022,07:00,,,,0.28648,R,ugm-3,12.87401,R,ugm-3,13.31328,R,ugm-3,,,
13-01-2022,08:00,,,,2.82902,R,ugm-3,29.38553,R,ugm-3,33.72331,R,ugm-3,,,
13-01-2022,09:00,,,,10.88637,R,ugm-3,49.21403,R,ugm-3,65.90623,R,ugm-3,,,
13-01-2022,10:00,,,,16.90252,R,ugm-3,46.15091,R,ugm-3,72.06775,R,ugm-3,,,
13-01-2022,11:00,,,,2.22025,R,ugm-3,13.59486,R,ugm-3,16.99919,R,ugm-3,,,
13-01-2022,12:00,,,,2.36349,R,ugm-3,11.83484,R,ugm-3,15.45881,R,ugm-3,,,
13-01-2022,13:00,,,,1.96957,R,ugm-3,10.51336,R,ugm-3,13.53333,R,ugm-3,,,
13-01-2022,14:00,,,,2.22025,R,ugm-3,12.10949,R,ugm-3,15.51382,R,ugm-3,,,
13-01-2022,15:00,,,,2.18444,R,ugm-3,15.13513,R,ugm-3,18.48455,R,ugm-3,,,
13-01-2022,16:00,,,,1.93376,R,ugm-3,25.03683,R,ugm-3,28.00190,R,ugm-3,,,
13-01-2022,17:00,,,,1.50404,R,ugm-3,30.81200,R,ugm-3,33.11816,R,ugm-3,,,
13-01-2022,18:00,,,,1.00269,R,ugm-3,21.40321,R,ugm-3,22.94065,R,ugm-3,,,
13-01-2022,19:00,,,,0.75202,R,ugm-3,20.19218,R,ugm-3,21.34526,R,ugm-3,,,
13-01-2022,20:00,,,,0.75202,R,ugm-3,19.69706,R,ugm-3,20.85013,R,ugm-3,,,
13-01-2022,21:00,,,,0.60878,R,ugm-3,24.31777,R,ugm-3,25.25122,R,ugm-3,,,
13-01-2022,22:00,,,,1.14593,R,ugm-3,38.40282,R,ugm-3,40.15989,R,ugm-3,,,
13-01-2022,23:00,,,,0.89526,R,ugm-3,28.55466,R,ugm-3,29.92737,R,ugm-3,,,
13-01-2022,24:00,,,,0.57297,R,ugm-3,13.86509,R,ugm-3,14.74363,R,ugm-3,,,
14-01-2022,01:00,,,,0.81208,R,ugm-3,10.19208,R,ugm-3,11.43725,R,ugm-3,,,
14-01-2022,02:00,,,,0.19108,R,ugm-3,7.03859,R,ugm-3,7.33157,R,ugm-3,,,
14-01-2022,03:00,,,,0.21496,R,ugm-3,3.51947,R,ugm-3,3.84908,R,ugm-3,,,
14-01-2022,04:00,,,,0.25079,R,ugm-3,4.45430,R,ugm-3,4.83884,R,ugm-3,,,
14-01-2022,05:00,,,,0.28662,R,ugm-3,5.60907,R,ugm-3,6.04855,R,ugm-3,,,
14-01-2022,06:00,,,,0.57323,R,ugm-3,14.62733,R,ugm-3,15.50627,R,ugm-3,,,
14-01-2022,07:00,,,,0.85985,R,ugm-3,23.86553,R,ugm-3,25.18395,R,ugm-3,,,
14-01-2022,08:00,,,,5.15909,R,ugm-3,44.87682,R,ugm-3,52.78731,R,ugm-3,,,
14-01-2022,09:00,,,,12.53946,R,ugm-3,50.05645,R,ugm-3,69.28335,R,ugm-3,,,
14-01-2022,10:00,,,,17.41193,R,ugm-3,43.96010,R,ugm-3,70.65802,R,ugm-3,,,
14-01-2022,11:00,,,,10.35401,R,ugm-3,31.41271,R,ugm-3,47.28864,R,ugm-3,,,
14-01-2022,12:00,,,,8.49100,R,ugm-3,24.81155,R,ugm-3,37.83091,R,ugm-3,,,
14-01-2022,13:00,,,,6.87879,R,ugm-3,21.56495,R,ugm-3,32.11228,R,ugm-3,,,
14-01-2022,14:00,,,,7.45202,R,ugm-3,24.70005,R,ugm-3,36.12632,R,ugm-3,,,